Location: Unnamed
(48.6007°N, 2.4808°E)
Time: 20:54:00
(UTC+02:00)

CUTE 1.7 + AOD 2 - Pass Details

Date: 04 April 2023
Orbit: 582 x 600 km, 97.7° (Epoch: 31 May)

Event Time Altitude Azimuth Distance (km) Brightness Sun altitude
Rises 04:41:48 0° 24° (NNE) 2,857 ? -24.5°
Maximum altitude 04:47:49 25° 94° (E) 1,225 ? -23.8°
Enters shadow 04:50:39 13° 144° (SE) 1,726 ? -23.5°
